Jordan, MT

12:33 PM MST on December 08, 2016 (GMT -0700)
Jordan

Weather History for KJDN - October, 2010

Change the Weather History Date:

Saturday, October 23, 2010

  Actual Average Record
Temperature  
Mean Temperature 45 °F 41 °F  
Max Temperature 58 °F 56 °F 83 °F (1948)
Min Temperature 32 °F 27 °F 11 °F (1919)
Degree Days  
Heating Degree Days 20 24  
Month to date heating degree days 311 442  
Since 1 July heating degree days 625 768  
Cooling Degree Days 0 0  
Month to date cooling degree days 0 0  
Year to date cooling degree days 367 420  
Moisture  
Dew Point 37 °F    
Average Humidity 76    
Maximum Humidity 96    
Minimum Humidity 55    
Precipitation  
Precipitation 0.00 in 0.03 in 0.32 in (1919)
Month to date precipitation 0.44 0.69  
Year to date precipitation 15.67 11.82  
Snow  
Snow 0.00 in - - ()
Month to date snowfall 0.0  
Since 1 July snowfall 0.0  
Since 1 September snowfall 0.0  
Snow Depth 0.00 in    
Sea Level Pressure  
Sea Level Pressure 29.81 in    
Wind  
Wind Speed 2 mph (ENE)    
Max Wind Speed 7 mph    
Max Gust Speed 8 mph    
T = Trace of Precipitation, MM = Missing Value Source: NWS Daily Summary

Daily Weather History Graph

Daily Weather History Graph

Search for Another Location

Airport or City:

Trip Planner

Search our weather history database for the weather conditions in past years. The results will help you decide how hot, cold, wet, or windy it might be!

Date:

Astronomy

Oct. 23, 2010 Rise Set
Actual Time 7:37 AM MDT 6:05 PM MDT
Civil Twilight 7:06 AM MDT 6:36 PM MDT
Nautical Twilight 6:30 AM MDT 7:12 PM MDT
Astronomical Twilight 5:55 AM MDT 7:47 PM MDT
Moon 6:00 PM MDT (10/23) 8:29 AM MDT (10/23)
Length of Visible Light 11h 30m
Length of Day
10h 27m
Full, 100% of the Moon is Illuminated
Oct 23
Full
Oct 30
Last Quarter
Nov 5
New
Nov 13
First Quarter
Nov 21
Full

Hourly Weather History & Observations

Time (MDT) Temp. Windchill Dew Point Humidity Pressure Visibility Wind Dir Wind Speed Gust Speed Precip Events Conditions
12:48 AM 37.9 °F 35.5 °F 34.0 °F 86% 29.80 in - WNW 3.5 mph - N/A   Unknown
1:48 AM 37.9 °F - 34.0 °F 86% 29.79 in - Calm Calm - N/A   Unknown
2:48 AM 36.0 °F - 33.1 °F 89% 29.80 in - Calm Calm - N/A   Unknown
3:48 AM 34.0 °F 31.0 °F 32.0 °F 92% 29.80 in - West 3.5 mph - N/A   Unknown
4:48 AM 34.0 °F - 30.9 °F 89% 29.79 in - Calm Calm - N/A   Unknown
5:48 AM 34.0 °F - 32.0 °F 92% 29.81 in - Calm Calm - N/A   Unknown
6:48 AM 34.0 °F 31.0 °F 32.0 °F 92% 29.83 in - West 3.5 mph - N/A   Unknown
7:48 AM 34.0 °F - 32.0 °F 92% 29.83 in - Calm Calm - N/A   Unknown
8:48 AM 37.0 °F 34.5 °F 34.0 °F 89% 29.85 in - WNW 3.5 mph - N/A   Unknown
9:48 AM 41.0 °F - 36.0 °F 82% 29.85 in - Calm Calm - N/A   Unknown
10:48 AM 48.0 °F - 39.0 °F 71% 29.83 in - Calm Calm - N/A   Unknown
11:48 AM 53.1 °F - 39.0 °F 59% 29.82 in - Calm Calm - N/A   Unknown
12:48 PM 54.0 °F - 39.9 °F 59% 29.81 in - SSE 3.5 mph - N/A   Unknown
1:48 PM 55.9 °F - 39.0 °F 53% 29.80 in - ESE 3.5 mph - N/A   Unknown
2:48 PM 55.9 °F - 39.0 °F 53% 29.80 in - Calm Calm - N/A   Unknown
3:48 PM 57.0 °F - 41.0 °F 55% 29.79 in - East 3.5 mph - N/A   Unknown
4:48 PM 57.0 °F - 41.0 °F 55% 29.80 in - ENE 4.6 mph - N/A   Unknown
5:48 PM 53.1 °F - 42.1 °F 66% 29.81 in - Calm Calm - N/A   Unknown
6:48 PM 51.1 °F - 39.9 °F 66% 29.81 in - Calm Calm - N/A   Unknown
7:48 PM 48.9 °F - 39.0 °F 69% 29.80 in - East 5.8 mph - N/A   Unknown
8:48 PM 46.0 °F - 39.9 °F 79% 29.81 in - Calm Calm - N/A   Unknown
9:48 PM 48.0 °F - 41.0 °F 77% 29.80 in - Calm Calm - N/A   Unknown
10:48 PM 46.0 °F - 41.0 °F 83% 29.79 in - Calm Calm - N/A   Unknown
11:48 PM 45.0 °F - 41.0 °F 86% 29.78 in - Calm Calm - N/A   Unknown